Weather History for Fulton, NY

Change the Weather History Date:

Sunday, October 2, 2011

  Actual Average (KSYR) Record (KSYR)
Temperature  
Mean Temperature 48 °F 56 °F  
Max Temperature 57 °F 65 °F 86 °F (1927)
Min Temperature 42 °F 46 °F 33 °F (1960)
Degree Days  
Heating Degree Days 16 10  
Month to date heating degree days 20  
Since 1 July heating degree days 187  
Cooling Degree Days 0 0  
Month to date cooling degree days 0  
Year to date cooling degree days 565  
Moisture  
Dew Point 45 °F    
Average Humidity 90    
Maximum Humidity 100    
Minimum Humidity 80    
Precipitation  
Precipitation 0.27 in 0.12 in 1.82 in (1929)
Month to date precipitation 0.23  
Year to date precipitation 28.51  
Snow  
Snow 0.00 in 0.00 in 1.40 in (1974)
Month to date snowfall 0.0  
Since 1 July snowfall 0.0  
Since 1 September snowfall 0.0  
Snow Depth -    
Sea Level Pressure  
Sea Level Pressure 29.88 in    
Wind  
Wind Speed 9 mph (North)    
Max Wind Speed 14 mph    
Max Gust Speed 22 mph    
Visibility 8 miles    
Events Rain    
T = Trace of Precipitation, MM = Missing Value Source: NWS Daily Summary

Daily Weather History Graph

Daily Weather History Graph

Search for Another Location

Airport:

Trip Planner

Search our weather history database for the weather conditions in past years. The results will help you decide how hot, cold, wet, or windy it might be!

Date:

Astronomy

Oct. 02, 2011 Rise Set
Actual Time 7:03 AM EDT 6:45 PM EDT
Civil Twilight 6:35 AM EDT 7:13 PM EDT
Nautical Twilight 6:02 AM EDT 7:46 PM EDT
Astronomical Twilight 5:28 AM EDT 8:20 PM EDT
Moon 1:18 PM EDT (10/2) 10:31 PM EDT (10/2)
Length of Visible Light 12h 38m
Length of Day
11h 41m
Waxing Crescent, 34% of the Moon is Illuminated
Oct 2
Waxing Crescent
Oct 3
First Quarter
Oct 11
Full
Oct 19
Last Quarter
Oct 26
New

Hourly Weather History & Observations

Time (EDT) Temp. Windchill Dew Point Humidity Pressure Visibility Wind Dir Wind Speed Gust Speed Precip Events Conditions
12:40 AM 42.8 °F 36.2 °F 39.2 °F 87% 29.93 in 9.0 mi NNE 12.7 mph 18.4 mph 0.00 in Rain Light Rain
12:54 AM 43.0 °F 36.8 °F 39.9 °F 89% 29.93 in 6.0 mi NNE 11.5 mph - 0.00 in Rain Light Rain
1:09 AM 42.8 °F 38.6 °F 39.2 °F 87% 29.92 in 6.0 mi NNE 6.9 mph - 0.00 in Rain Light Rain
1:16 AM 42.8 °F 38.0 °F 39.2 °F 87% 29.92 in 7.0 mi North 8.1 mph - 0.00 in Rain Light Rain
1:37 AM 42.8 °F 39.3 °F 41.0 °F 93% 29.92 in 7.0 mi NNE 5.8 mph - 0.00 in Rain Light Rain
1:54 AM 43.0 °F 37.2 °F 41.0 °F 93% 29.92 in 7.0 mi North 10.4 mph - 0.00 in Rain Light Rain
2:21 AM 42.8 °F 37.0 °F 39.2 °F 87% 29.90 in 8.0 mi North 10.4 mph 16.1 mph 0.00 in Rain Light Rain
2:54 AM 43.0 °F 37.7 °F 41.0 °F 93% 29.90 in 6.0 mi North 9.2 mph - 0.00 in Rain Light Rain
3:06 AM 42.8 °F 36.2 °F 41.0 °F 93% 29.88 in 6.0 mi North 12.7 mph 18.4 mph 0.00 in   Overcast
3:54 AM 43.0 °F 38.8 °F 41.0 °F 93% 29.88 in 10.0 mi NNE 6.9 mph - 0.00 in   Overcast
4:54 AM 43.0 °F 36.4 °F 41.0 °F 93% 29.87 in 5.0 mi North 12.7 mph - N/A   Overcast
5:54 AM 43.0 °F 36.0 °F 41.0 °F 93% 29.88 in 10.0 mi NNE 13.8 mph 21.9 mph N/A   Overcast
6:54 AM 43.0 °F 36.8 °F 41.0 °F 93% 29.87 in 6.0 mi NNE 11.5 mph 19.6 mph 0.00 in   Overcast
7:36 AM 42.8 °F 36.2 °F 41.0 °F 93% 29.85 in 2.5 mi North 12.7 mph 19.6 mph 0.03 in Rain Light Rain
7:43 AM 42.8 °F 37.0 °F 42.8 °F 100% 29.85 in 4.0 mi North 10.4 mph 18.4 mph 0.03 in Rain Light Rain
8:52 AM 44.6 °F 40.7 °F 42.8 °F 93% 29.86 in 10.0 mi North 6.9 mph - 0.03 in Rain Light Rain
8:54 AM 45.0 °F 40.1 °F 43.0 °F 93% 29.86 in 10.0 mi North 9.2 mph - 0.03 in Rain Light Rain
9:19 AM 44.6 °F - 42.8 °F 93% 29.88 in 4.0 mi Calm Calm - 0.03 in Rain Rain
9:54 AM 45.0 °F 42.6 °F 44.1 °F 97% 29.89 in 8.0 mi NE 4.6 mph - 0.08 in Rain Light Rain
10:06 AM 44.6 °F 42.2 °F 44.6 °F 100% 29.87 in 8.0 mi North 4.6 mph - 0.01 in Rain Light Rain
10:33 AM 46.4 °F 41.9 °F 44.6 °F 93% 29.86 in 9.0 mi North 9.2 mph - 0.02 in Rain Light Rain
10:54 AM 48.9 °F - 46.0 °F 90% 29.88 in 10.0 mi NE 5.8 mph - 0.02 in   Overcast
11:02 AM 48.2 °F - 46.4 °F 93% 29.88 in 10.0 mi ENE 3.5 mph - N/A   Overcast
11:54 AM 53.1 °F - 48.0 °F 83% 29.88 in 10.0 mi NE 8.1 mph - N/A   Overcast
12:54 PM 51.1 °F - 46.9 °F 86% 29.88 in 10.0 mi North 6.9 mph - N/A   Overcast
1:27 PM 51.8 °F - 46.4 °F 82% 29.87 in 10.0 mi North 4.6 mph - N/A   Overcast
1:54 PM 54.0 °F - 48.0 °F 80% 29.87 in 10.0 mi North 3.5 mph - N/A   Overcast
2:44 PM 53.6 °F - 48.2 °F 82% 29.86 in 10.0 mi North 8.1 mph - N/A   Overcast
2:54 PM 54.0 °F - 48.9 °F 83% 29.86 in 10.0 mi NNW 6.9 mph - N/A   Overcast
3:43 PM 55.4 °F - 50.0 °F 82% 29.86 in 10.0 mi North 6.9 mph - N/A   Overcast
3:54 PM 55.9 °F - 50.0 °F 80% 29.86 in 10.0 mi North 8.1 mph - N/A   Mostly Cloudy
4:54 PM 55.0 °F - 50.0 °F 83% 29.87 in 10.0 mi NNW 3.5 mph - N/A   Mostly Cloudy
5:54 PM 55.0 °F - 50.0 °F 83% 29.88 in 10.0 mi NW 8.1 mph - N/A   Overcast
6:42 PM 51.8 °F - 48.2 °F 88% 29.88 in 10.0 mi NNW 5.8 mph - N/A   Mostly Cloudy
6:54 PM 50.0 °F - 48.0 °F 93% 29.89 in 10.0 mi NNW 5.8 mph - N/A   Scattered Clouds
7:21 PM 50.0 °F - 48.2 °F 94% 29.88 in 10.0 mi North 10.4 mph 18.4 mph N/A   Mostly Cloudy
7:54 PM 50.0 °F - 48.0 °F 93% 29.89 in 10.0 mi North 9.2 mph - N/A   Overcast
8:11 PM 50.0 °F - 48.2 °F 94% 29.88 in 10.0 mi North 8.1 mph - N/A   Overcast
8:54 PM 50.0 °F - 48.0 °F 93% 29.88 in 10.0 mi North 8.1 mph - N/A   Overcast
9:54 PM 51.1 °F - 48.0 °F 89% 29.90 in 8.0 mi NNE 8.1 mph - 0.00 in Rain Light Rain
10:10 PM 50.0 °F - 48.2 °F 94% 29.89 in 6.0 mi North 5.8 mph - 0.01 in Rain Light Rain
10:38 PM 50.0 °F - 48.2 °F 94% 29.90 in 2.5 mi North 4.6 mph - 0.06 in Rain Heavy Rain
10:54 PM 50.0 °F - 48.0 °F 93% 29.90 in 5.0 mi NNW 8.1 mph - 0.11 in Rain Light Rain
11:27 PM 50.0 °F - 48.2 °F 94% 29.89 in 5.0 mi North 4.6 mph - 0.02 in Rain Rain
11:36 PM 50.0 °F - 48.2 °F 94% 29.89 in 5.0 mi North 5.8 mph - 0.03 in Rain Light Rain
11:54 PM 50.0 °F - 48.9 °F 96% 29.90 in 9.0 mi North 5.8 mph - 0.03 in Rain Light Rain